Content
SEND FEEDBACK

Daily
Averages
Monthly
Summary
United States of America

RAMONA, CALIFORNIA


Home > North America > United States > California
Elevation: 1421 feet     Latitude: 33 02N     Longitude: 116 53W

WEATHER
 
SELECT A DAY
Number of Records: 192,957;   Date Range: 8/13/98 - 12/27/14
 
SHARE

PRINT THIS DATA

[ ← Previous Day ]
WEATHER ALMANAC - FEBRUARY 13, 2013
[ Next Day → ]
[ °C ]   °F
Weather ElementAverageHighLow
Temperature44.8 °F66 °F (12:53 pm)26.1 °F (3:53 am)
Dewpoint30.9 °F42.1 °F (4:53 pm)21.9 °F (10:53 am)
Humidity66.1 %93 % (10:53 pm)21 % (10:53 am)
Barometer30.19 in30.26 in (7:53 am)30.14 in (2:53 pm)
Wind Speed3 mph10.4 mph (10:53 am)
Weather ElementAverage
Visibility8.7 mi
Wind DirectionESE (104.8 °)

Weather ElementTotal
Precipitation---
Heating Degree Days19 (Base 65)
Averaged from 23 records on February 13, 2013
WEATHER CONDITIONS BREAKOUT
WIND DIRECTION BREAKOUT
WEATHER BY HOUR - FEBRUARY 13, 2013
[ °C ]   °F
Local TimeTemperatureDewpointHumidityBarometerVisibilityWind DirectionWind SpeedGust SpeedPrecipitationEventsConditions
1:53 AM30.0 °F27.0 °F88 %30.22 in6.0 miCalmClear
2:53 AM28.9 °F27.0 °F92 %30.22 in5.0 miCalmClear
3:53 AM26.1 °F24.1 °F92 %30.22 in7.0 miCalmClear
4:53 AM26.1 °F23.0 °F88 %30.23 in10.0 miCalmClear
5:53 AM27.0 °F25.0 °F92 %30.24 in7.0 miEast (100°)3.5 mphClear
6:53 AM27.0 °F24.1 °F89 %30.25 in6.0 miCalmClear
7:53 AM35.1 °F30.9 °F85 %30.26 in8.0 miCalmClear
8:53 AM48.9 °F32.0 °F52 %30.25 in10.0 miCalmClear
9:53 AM57.0 °F30.0 °F36 %30.24 in10.0 miCalmClear
10:53 AM63.0 °F21.9 °F21 %30.22 in10.0 miWNW (300°)10.4 mphClear
11:53 AM63.0 °F26.1 °F25 %30.20 in10.0 miWNW (290°)10.4 mphClear
12:53 PM66.0 °F28.9 °F25 %30.17 in10.0 miWNW (300°)5.8 mphClear
1:53 PM64.9 °F30.9 °F28 %30.15 in10.0 miWNW (300°)10.4 mphClear
2:53 PM64.0 °F35.1 °F34 %30.14 in10.0 miWest (270°)9.2 mphClear
3:53 PM62.1 °F35.1 °F37 %30.14 in10.0 miWest (270°)8.1 mphClear
4:53 PM57.0 °F42.1 °F57 %30.14 in10.0 miWest (280°)6.9 mphClear
5:53 PM50.0 °F39.0 °F66 %30.16 in10.0 miCalmClear
6:53 PM45.0 °F37.0 °F74 %30.17 in10.0 miCalmClear
7:53 PM43.0 °F37.0 °F80 %30.17 in10.0 miCalmClear
8:53 PM39.9 °F36.0 °F86 %30.17 in9.0 miCalmClear
9:53 PM37.0 °F34.0 °F89 %30.16 in9.0 miCalmClear
10:53 PM36.0 °F34.0 °F93 %30.16 in9.0 miCalmClear
11:53 PM33.1 °F30.9 °F92 %30.17 in5.0 miWNW (300°)3.5 mphClear
Hourly data recorded from KRNM, located miles away from Ramona, California







STORIES FROM OUR PARTNERS